Location: Cedar Brake
(32.2526°N, 97.8459°W)
Time: 17:18:19
(UTC+00:00)

Feng Yun 1-1 Rocket - Pass Details

Date: 22 April 2026
Orbit: 829 x 933 km, 99.0° (Epoch: 9 May)

Event Time Altitude Azimuth Distance (km) Brightness Sun altitude
Exits shadow 02:53:25 33° 168° (SSE) 1,413 5.0 -21.8°
Maximum altitude 02:56:03 87° 257° (WSW) 856 4.1 -22.3°
Drops below altitude 10° 03:01:31 10° 346° (NNW) 2,457 7.2 -23.3°
Sets 03:03:51 0° 347° (NNW) 3,386 8.0 -23.7°
